Time,TemperatureF,DewpointF,PressureIn,WindDirection,WindDirectionDegrees,WindSpeedMPH,WindSpeedGustMPH,Humidity,HourlyPrecipIn,Conditions,Clouds,dailyrainin,SoftwareType,DateUTC
2013-04-21 00:03:00,77.0,73.0,-100.00,North,0,0.0,0.0,87,0.00,,,0.00,,2013-04-21 04:03:00,
2013-04-21 00:12:00,76.0,71.0,-100.00,North,0,0.0,0.0,85,0.00,,,0.00,,2013-04-21 04:12:00,
2013-04-21 00:23:00,76.0,71.0,-100.00,North,0,0.0,0.0,85,0.00,,,0.00,,2013-04-21 04:23:00,
2013-04-21 00:33:00,76.0,71.0,-100.00,North,0,0.0,0.0,85,0.00,,,0.00,,2013-04-21 04:33:00,
2013-04-21 00:42:00,76.0,71.0,-100.00,North,0,0.0,0.0,85,0.00,,,0.00,,2013-04-21 04:42:00,
2013-04-21 00:53:00,76.0,72.0,-100.00,North,0,0.0,0.0,86,0.00,,,0.00,,2013-04-21 04:53:00,
2013-04-21 01:02:00,76.0,72.0,-100.00,North,0,0.0,0.0,88,0.00,,,0.00,,2013-04-21 05:02:00,
2013-04-21 01:12:00,76.0,72.0,-100.00,North,0,0.0,0.0,88,0.00,,,0.00,,2013-04-21 05:12:00,
2013-04-21 01:22:00,76.0,73.0,-100.00,North,0,0.0,0.0,89,0.00,,,0.00,,2013-04-21 05:22:00,
2013-04-21 01:32:00,76.0,72.0,-100.00,North,0,0.0,0.0,88,0.00,,,0.00,,2013-04-21 05:32:00,
2013-04-21 01:42:00,76.0,72.0,-100.00,North,0,0.0,0.0,88,0.00,,,0.00,,2013-04-21 05:42:00,
2013-04-21 01:52:00,76.0,73.0,-100.00,North,0,0.0,0.0,89,0.00,,,0.00,,2013-04-21 05:52:00,
2013-04-21 02:01:00,76.0,73.0,-100.00,North,0,0.0,0.0,90,0.00,,,0.00,,2013-04-21 06:01:00,
2013-04-21 02:12:00,76.0,73.0,-100.00,North,0,0.0,0.0,90,0.00,,,0.00,,2013-04-21 06:12:00,
2013-04-21 02:22:00,76.0,73.0,-100.00,North,0,0.0,0.0,90,0.00,,,0.00,,2013-04-21 06:22:00,
2013-04-21 02:32:00,76.0,73.0,-100.00,North,0,0.0,0.0,90,0.00,,,0.00,,2013-04-21 06:32:00,
2013-04-21 02:42:00,76.0,73.0,-100.00,North,0,0.0,0.0,90,0.00,,,0.00,,2013-04-21 06:42:00,
2013-04-21 02:51:00,76.0,73.0,-100.00,North,0,0.0,0.0,90,0.00,,,0.00,,2013-04-21 06:51:00,
2013-04-21 03:02:00,76.0,73.0,-100.00,North,0,0.0,0.0,90,0.00,,,0.00,,2013-04-21 07:02:00,
2013-04-21 03:12:00,76.0,73.0,-100.00,North,0,0.0,0.0,90,0.00,,,0.00,,2013-04-21 07:12:00,
2013-04-21 03:22:00,76.0,73.0,-100.00,North,0,0.0,0.0,90,0.00,,,0.00,,2013-04-21 07:22:00,
2013-04-21 03:32:00,76.0,73.0,-100.00,North,0,0.0,0.0,90,0.00,,,0.00,,2013-04-21 07:32:00,
2013-04-21 03:42:00,76.0,73.0,-100.00,North,0,0.0,0.0,90,0.00,,,0.00,,2013-04-21 07:42:00,
2013-04-21 03:52:00,75.0,72.0,-100.00,North,0,0.0,0.0,89,0.00,,,0.00,,2013-04-21 07:52:00,
2013-04-21 04:01:00,75.0,72.0,-100.00,North,0,0.0,0.0,89,0.00,,,0.00,,2013-04-21 08:01:00,
2013-04-21 04:12:00,75.0,72.0,-100.00,North,0,0.0,0.0,89,0.00,,,0.00,,2013-04-21 08:12:00,
2013-04-21 04:21:00,75.0,72.0,-100.00,North,0,0.0,0.0,89,0.00,,,0.00,,2013-04-21 08:21:00,
2013-04-21 04:32:00,75.0,72.0,-100.00,North,0,0.0,0.0,89,0.00,,,0.00,,2013-04-21 08:32:00,
2013-04-21 04:42:00,75.0,72.0,-100.00,North,0,0.0,0.0,89,0.00,,,0.00,,2013-04-21 08:42:00,
2013-04-21 04:52:00,75.0,72.0,-100.00,North,0,0.0,0.0,89,0.00,,,0.00,,2013-04-21 08:52:00,
2013-04-21 05:02:00,75.0,72.0,-100.00,North,0,0.0,0.0,90,0.00,,,0.00,,2013-04-21 09:02:00,
2013-04-21 05:12:00,75.0,72.0,-100.00,North,0,0.0,0.0,90,0.00,,,0.00,,2013-04-21 09:12:00,
2013-04-21 05:21:00,75.0,72.0,-100.00,North,0,0.0,0.0,90,0.00,,,0.00,,2013-04-21 09:21:00,
2013-04-21 05:32:00,75.0,72.0,-100.00,North,0,0.0,0.0,90,0.00,,,0.00,,2013-04-21 09:32:00,
2013-04-21 05:43:00,75.0,72.0,-100.00,North,0,0.0,0.0,90,0.00,,,0.00,,2013-04-21 09:43:00,
2013-04-21 05:52:00,75.0,72.0,-100.00,North,0,0.0,0.0,90,0.00,,,0.00,,2013-04-21 09:52:00,
2013-04-21 06:03:00,75.0,72.0,-100.00,North,0,0.0,0.0,90,0.00,,,0.00,,2013-04-21 10:03:00,
2013-04-21 06:12:00,75.0,72.0,-100.00,North,0,0.0,0.0,90,0.00,,,0.00,,2013-04-21 10:12:00,
2013-04-21 06:22:00,75.0,72.0,-100.00,North,0,0.0,0.0,90,0.00,,,0.00,,2013-04-21 10:22:00,
2013-04-21 06:32:00,75.0,72.0,-100.00,North,0,0.0,0.0,90,0.00,,,0.00,,2013-04-21 10:32:00,
2013-04-21 06:42:00,75.0,72.0,-100.00,North,0,0.0,0.0,90,0.00,,,0.00,,2013-04-21 10:42:00,
2013-04-21 06:52:00,75.0,72.0,-100.00,North,0,0.0,0.0,90,0.00,,,0.00,,2013-04-21 10:52:00,
2013-04-21 07:03:00,75.0,72.0,-100.00,North,0,0.0,0.0,90,0.00,,,0.00,,2013-04-21 11:03:00,
2013-04-21 07:12:00,75.0,72.0,-100.00,North,0,0.0,0.0,90,0.00,,,0.00,,2013-04-21 11:12:00,
2013-04-21 07:22:00,75.0,72.0,-100.00,North,0,0.0,0.0,90,0.00,,,0.00,,2013-04-21 11:22:00,
2013-04-21 07:34:00,75.0,72.0,-100.00,North,0,0.0,0.0,90,0.00,,,0.00,,2013-04-21 11:34:00,
2013-04-21 07:42:00,75.0,72.0,-100.00,North,0,0.0,0.0,90,0.00,,,0.00,,2013-04-21 11:42:00,
2013-04-21 07:52:00,75.0,72.0,-100.00,North,0,0.0,0.0,90,0.00,,,0.00,,2013-04-21 11:52:00,
2013-04-21 08:02:00,75.0,72.0,-100.00,North,0,0.0,0.0,90,0.00,,,0.00,,2013-04-21 12:02:00,
2013-04-21 08:12:00,75.0,72.0,-100.00,North,0,0.0,0.0,90,0.00,,,0.00,,2013-04-21 12:12:00,
2013-04-21 08:22:00,75.0,72.0,-100.00,North,0,0.0,0.0,90,0.00,,,0.00,,2013-04-21 12:22:00,
2013-04-21 08:32:00,75.0,72.0,-100.00,North,0,0.0,0.0,89,0.00,,,0.00,,2013-04-21 12:32:00,
2013-04-21 08:42:00,75.0,72.0,-100.00,North,0,0.0,0.0,89,0.00,,,0.00,,2013-04-21 12:42:00,
2013-04-21 08:52:00,75.0,72.0,-100.00,North,0,0.0,0.0,89,0.00,,,0.00,,2013-04-21 12:52:00,
2013-04-21 09:01:00,76.0,73.0,-100.00,North,0,0.0,0.0,89,0.00,,,0.00,,2013-04-21 13:01:00,
2013-04-21 09:12:00,76.0,73.0,-100.00,North,0,0.0,0.0,89,0.00,,,0.00,,2013-04-21 13:12:00,
2013-04-21 09:22:00,76.0,73.0,-100.00,North,0,0.0,0.0,89,0.00,,,0.00,,2013-04-21 13:22:00,
2013-04-21 09:32:00,76.0,73.0,-100.00,North,0,0.0,0.0,89,0.00,,,0.00,,2013-04-21 13:32:00,
2013-04-21 09:42:00,76.0,73.0,-100.00,North,0,0.0,0.0,89,0.00,,,0.00,,2013-04-21 13:42:00,
2013-04-21 09:52:00,76.0,73.0,-100.00,North,0,0.0,0.0,89,0.00,,,0.00,,2013-04-21 13:52:00,
2013-04-21 10:02:00,78.0,73.0,-100.00,North,0,0.0,0.0,85,0.00,,,0.00,,2013-04-21 14:02:00,
2013-04-21 10:11:00,78.0,73.0,-100.00,North,0,0.0,0.0,85,0.00,,,0.00,,2013-04-21 14:11:00,
2013-04-21 10:21:00,78.0,73.0,-100.00,North,0,0.0,0.0,85,0.00,,,0.00,,2013-04-21 14:21:00,
2013-04-21 10:32:00,78.0,72.0,-100.00,North,0,0.0,0.0,82,0.00,,,0.00,,2013-04-21 14:32:00,
2013-04-21 10:42:00,78.0,72.0,-100.00,North,0,0.0,0.0,82,0.00,,,0.00,,2013-04-21 14:42:00,
2013-04-21 10:52:00,80.0,72.0,-100.00,North,0,0.0,0.0,78,0.00,,,0.00,,2013-04-21 14:52:00,
2013-04-21 11:02:00,80.0,72.0,-100.00,North,0,0.0,0.0,78,0.00,,,0.00,,2013-04-21 15:02:00,
2013-04-21 11:11:00,80.0,72.0,-100.00,North,0,0.0,0.0,78,0.00,,,0.00,,2013-04-21 15:11:00,
2013-04-21 11:22:00,77.0,70.0,-100.00,North,0,0.0,0.0,79,0.00,,,0.00,,2013-04-21 15:22:00,
2013-04-21 11:33:00,77.0,69.0,-100.00,North,0,0.0,0.0,76,0.00,,,0.00,,2013-04-21 15:33:00,
2013-04-21 11:43:00,77.0,69.0,-100.00,North,0,0.0,0.0,76,0.00,,,0.00,,2013-04-21 15:43:00,
2013-04-21 11:53:00,77.0,69.0,-100.00,North,0,0.0,0.0,76,0.00,,,0.00,,2013-04-21 15:53:00,
2013-04-21 12:03:00,80.0,68.0,-100.00,North,0,0.0,0.0,68,0.00,,,0.00,,2013-04-21 16:03:00,
2013-04-21 12:12:00,80.0,68.0,-100.00,North,0,0.0,0.0,68,0.00,,,0.00,,2013-04-21 16:12:00,
2013-04-21 12:23:00,80.0,71.0,-100.00,North,0,0.0,0.0,75,0.00,,,0.00,,2013-04-21 16:23:00,
2013-04-21 12:33:00,80.0,71.0,-100.00,North,0,0.0,0.0,75,0.00,,,0.00,,2013-04-21 16:33:00,
2013-04-21 12:42:00,80.0,71.0,-100.00,North,0,0.0,0.0,75,0.00,,,0.00,,2013-04-21 16:42:00,
2013-04-21 12:52:00,82.0,73.0,-100.00,North,0,0.0,0.0,74,0.00,,,0.00,,2013-04-21 16:52:00,
2013-04-21 13:02:00,83.0,74.0,-100.00,North,0,0.0,0.0,74,0.00,,,0.00,,2013-04-21 17:02:00,
2013-04-21 13:12:00,83.0,74.0,-100.00,North,0,0.0,0.0,74,0.00,,,0.00,,2013-04-21 17:12:00,
2013-04-21 13:23:00,83.0,74.0,-100.00,North,0,0.0,0.0,74,0.00,,,0.00,,2013-04-21 17:23:00,
2013-04-21 13:32:00,83.0,73.0,-100.00,North,0,0.0,0.0,73,0.00,,,0.00,,2013-04-21 17:32:00,
2013-04-21 13:42:00,83.0,73.0,-100.00,North,0,0.0,0.0,73,0.00,,,0.00,,2013-04-21 17:42:00,
2013-04-21 13:52:00,82.0,72.0,-100.00,North,0,0.0,0.0,73,0.00,,,0.00,,2013-04-21 17:52:00,
2013-04-21 14:02:00,82.0,72.0,-100.00,North,0,0.0,0.0,73,0.00,,,0.00,,2013-04-21 18:02:00,
2013-04-21 14:11:00,82.0,72.0,-100.00,North,0,0.0,0.0,73,0.00,,,0.00,,2013-04-21 18:11:00,
2013-04-21 14:22:00,83.0,73.0,-100.00,North,0,0.0,0.0,72,0.00,,,0.00,,2013-04-21 18:22:00,
2013-04-21 14:33:00,83.0,73.0,-100.00,North,0,0.0,0.0,71,0.00,,,0.00,,2013-04-21 18:33:00,
2013-04-21 14:42:00,83.0,73.0,-100.00,North,0,0.0,0.0,71,0.00,,,0.00,,2013-04-21 18:42:00,
2013-04-21 14:52:00,83.0,73.0,-100.00,North,0,0.0,0.0,71,0.00,,,0.00,,2013-04-21 18:52:00,
2013-04-21 15:02:00,83.0,73.0,-100.00,North,0,0.0,0.0,71,0.00,,,0.00,,2013-04-21 19:02:00,
2013-04-21 15:12:00,83.0,73.0,-100.00,North,0,0.0,0.0,71,0.00,,,0.00,,2013-04-21 19:12:00,
2013-04-21 15:22:00,82.0,73.0,-100.00,North,0,0.0,0.0,74,0.00,,,0.00,,2013-04-21 19:22:00,
2013-04-21 15:32:00,81.0,72.0,-100.00,North,0,0.0,0.0,74,0.00,,,0.00,,2013-04-21 19:32:00,
2013-04-21 15:43:00,81.0,72.0,-100.00,North,0,0.0,0.0,74,0.00,,,0.00,,2013-04-21 19:43:00,
2013-04-21 15:52:00,81.0,72.0,-100.00,North,0,0.0,0.0,74,0.00,,,0.00,,2013-04-21 19:52:00,
2013-04-21 16:02:00,82.0,72.0,-100.00,North,0,0.0,0.0,73,0.00,,,0.00,,2013-04-21 20:02:00,
2013-04-21 16:11:00,82.0,72.0,-100.00,North,0,0.0,0.0,73,0.00,,,0.00,,2013-04-21 20:11:00,
2013-04-21 16:22:00,81.0,72.0,-100.00,North,0,0.0,0.0,73,0.00,,,0.00,,2013-04-21 20:22:00,
2013-04-21 16:32:00,81.0,71.0,-100.00,North,0,0.0,0.0,72,0.00,,,0.00,,2013-04-21 20:32:00,
2013-04-21 16:42:00,81.0,71.0,-100.00,North,0,0.0,0.0,72,0.00,,,0.00,,2013-04-21 20:42:00,
2013-04-21 16:52:00,80.0,72.0,-100.00,North,0,0.0,0.0,76,0.00,,,0.00,,2013-04-21 20:52:00,
2013-04-21 17:02:00,80.0,72.0,-100.00,North,0,0.0,0.0,76,0.00,,,0.00,,2013-04-21 21:02:00,
2013-04-21 17:12:00,80.0,72.0,-100.00,North,0,0.0,0.0,77,0.00,,,0.00,,2013-04-21 21:12:00,
2013-04-21 17:22:00,80.0,72.0,-100.00,North,0,0.0,0.0,77,0.00,,,0.00,,2013-04-21 21:22:00,
2013-04-21 17:33:00,79.0,71.0,-100.00,North,0,0.0,0.0,77,0.00,,,0.00,,2013-04-21 21:33:00,
2013-04-21 17:43:00,79.0,71.0,-100.00,North,0,0.0,0.0,77,0.00,,,0.00,,2013-04-21 21:43:00,
2013-04-21 17:53:00,79.0,72.0,-100.00,North,0,0.0,0.0,78,0.00,,,0.00,,2013-04-21 21:53:00,
2013-04-21 18:03:00,79.0,72.0,-100.00,North,0,0.0,0.0,78,0.00,,,0.00,,2013-04-21 22:03:00,
2013-04-21 18:12:00,79.0,72.0,-100.00,North,0,0.0,0.0,78,0.00,,,0.00,,2013-04-21 22:12:00,
2013-04-21 18:22:00,79.0,72.0,-100.00,North,0,0.0,0.0,78,0.00,,,0.00,,2013-04-21 22:22:00,
2013-04-21 18:33:00,79.0,72.0,-100.00,North,0,0.0,0.0,79,0.00,,,0.00,,2013-04-21 22:33:00,
2013-04-21 18:43:00,79.0,72.0,-100.00,North,0,0.0,0.0,79,0.00,,,0.00,,2013-04-21 22:43:00,
2013-04-21 18:53:00,79.0,72.0,-100.00,North,0,0.0,0.0,80,0.00,,,0.00,,2013-04-21 22:53:00,
2013-04-21 19:02:00,79.0,72.0,-100.00,North,0,0.0,0.0,80,0.00,,,0.00,,2013-04-21 23:02:00,
2013-04-21 19:12:00,79.0,72.0,-100.00,North,0,0.0,0.0,80,0.00,,,0.00,,2013-04-21 23:12:00,
2013-04-21 19:32:00,78.0,71.0,-100.00,North,0,0.0,0.0,78,0.00,,,0.00,,2013-04-21 23:32:00,
2013-04-21 19:43:00,78.0,71.0,-100.00,North,0,0.0,0.0,78,0.00,,,0.00,,2013-04-21 23:43:00,
2013-04-21 19:52:00,78.0,71.0,-100.00,North,0,0.0,0.0,79,0.00,,,0.00,,2013-04-21 23:52:00,
2013-04-21 20:01:00,78.0,71.0,-100.00,North,0,0.0,0.0,79,0.00,,,0.00,,2013-04-22 00:01:00,
2013-04-21 20:12:00,78.0,71.0,-100.00,North,0,0.0,0.0,79,0.00,,,0.00,,2013-04-22 00:12:00,
2013-04-21 20:22:00,78.0,73.0,-100.00,North,0,0.0,0.0,84,0.00,,,0.00,,2013-04-22 00:22:00,
2013-04-21 20:32:00,78.0,73.0,-100.00,North,0,0.0,0.0,86,0.00,,,0.00,,2013-04-22 00:32:00,
2013-04-21 20:42:00,78.0,73.0,-100.00,North,0,0.0,0.0,86,0.00,,,0.00,,2013-04-22 00:42:00,
2013-04-21 20:52:00,77.0,73.0,-100.00,North,0,0.0,0.0,87,0.00,,,0.00,,2013-04-22 00:52:00,
2013-04-21 21:01:00,77.0,73.0,-100.00,North,0,0.0,0.0,88,0.00,,,0.00,,2013-04-22 01:01:00,
2013-04-21 21:12:00,77.0,73.0,-100.00,North,0,0.0,0.0,88,0.00,,,0.00,,2013-04-22 01:12:00,
2013-04-21 21:22:00,77.0,73.0,-100.00,North,0,0.0,0.0,88,0.00,,,0.00,,2013-04-22 01:22:00,
2013-04-21 21:32:00,77.0,73.0,-100.00,North,0,0.0,0.0,88,0.00,,,0.00,,2013-04-22 01:32:00,
2013-04-21 21:42:00,77.0,73.0,-100.00,North,0,0.0,0.0,88,0.00,,,0.00,,2013-04-22 01:42:00,
2013-04-21 21:52:00,77.0,73.0,-100.00,North,0,0.0,0.0,88,0.00,,,0.00,,2013-04-22 01:52:00,
2013-04-21 22:02:00,77.0,74.0,-100.00,North,0,0.0,0.0,89,0.00,,,0.00,,2013-04-22 02:02:00,
2013-04-21 22:12:00,77.0,74.0,-100.00,North,0,0.0,0.0,89,0.00,,,0.00,,2013-04-22 02:12:00,
2013-04-21 22:22:00,77.0,74.0,-100.00,North,0,0.0,0.0,89,0.00,,,0.00,,2013-04-22 02:22:00,
2013-04-21 22:32:00,77.0,74.0,-100.00,North,0,0.0,0.0,89,0.00,,,0.00,,2013-04-22 02:32:00,
2013-04-21 22:42:00,77.0,74.0,-100.00,North,0,0.0,0.0,89,0.00,,,0.00,,2013-04-22 02:42:00,
2013-04-21 22:52:00,77.0,74.0,-100.00,North,0,0.0,0.0,89,0.00,,,0.00,,2013-04-22 02:52:00,
2013-04-21 23:02:00,77.0,74.0,-100.00,North,0,0.0,0.0,89,0.00,,,0.00,,2013-04-22 03:02:00,
2013-04-21 23:11:00,77.0,74.0,-100.00,North,0,0.0,0.0,89,0.00,,,0.00,,2013-04-22 03:11:00,
2013-04-21 23:22:00,77.0,74.0,-100.00,North,0,0.0,0.0,89,0.00,,,0.00,,2013-04-22 03:22:00,
2013-04-21 23:33:00,77.0,74.0,-100.00,North,0,0.0,0.0,89,0.00,,,0.00,,2013-04-22 03:33:00,
2013-04-21 23:43:00,77.0,74.0,-100.00,North,0,0.0,0.0,89,0.00,,,0.00,,2013-04-22 03:43:00,
2013-04-21 23:52:00,76.0,73.0,-100.00,North,0,0.0,0.0,89,0.00,,,0.00,,2013-04-22 03:52:00,